Location: Москва
(55.7518°N, 37.5952°E)
Time: 05:12:01
(UTC+03:00)

ISS - Pass Details

Date: 03 February 2021
Orbit: 417 x 422 km, 51.6° (Epoch: 17 May)

Event Time Altitude Azimuth Distance (km) Brightness Sun altitude
Rises 17:30:31 0° 269° (W) 2,373 1.5 -3.6°
Reaches altitude 10° 17:32:43 10° 260° (W) 1,509 0.8 -3.9°
Maximum altitude 17:35:49 34° 194° (SSW) 722 -2.1 -4.3°
Drops below altitude 10° 17:38:55 10° 128° (SE) 1,509 -1.2 -4.7°
Enters shadow 17:42:00 -3° 117° (ESE) 2,724 0.0 -5.1°
